Home   Weather   McAllen   Past weeks

Flag for USA Past Weather in McAllen, Texas, USA — Yesterday and Last 2 Weeks

Now
104 °F

Sunny.


Feels Like: 103 °F
Forecast: 74 / 100 °F
Wind: 18 mph from North

Location: Miller International Airport

Current Time: Apr 26, 2017 at 2:23:35 pm

Latest Report: Apr 26, 2017 at 1:53 pm


Visibility: 10 mi

Pressure: 29.56 "Hg

Humidity: 20%

Dew Point: 56 °F

Location of McAllenLocation

Past Weather in McAllen — Graph

°F

McAllen Temperature Yesterday

Maximum temperature yesterday: 97 °F (at 2:53 pm)
Minimum temperature yesterday: 70 °F (at 12:53 am)
Average temperature yesterday: 81 °F

High & Low Weather Summary for the Past Weeks

 TemperatureHumidityPressure
High103 °F (Apr 26, 12:53 pm)93% (Apr 20, 6:37 am)30.21 "Hg (Apr 20, 6:37 am)
Low60 °F (Apr 24, 6:53 am)22% (Apr 26, 12:53 pm)29.43 "Hg (Apr 26, 4:53 am)
Average78 °F68%29.93 "Hg
* Reported Apr 11 12:53 pm — Apr 26 12:53 pm, McAllen, Weather by CustomWeather, © 2017

Note: Actual official high and low records may vary slightly from our data, if they occured in-between our weather recording intervals... More about our weather records

Advertising

McAllen Weather History for the Previous 24 Hours

Scroll right to see more
 ConditionsComfort  
Time TempWeatherWind HumidityBarometerVisibility
12:53 pm
Wed, Apr 26
103 °FSunny.18 mph22%29.56 "Hg10 mi
11:53 am100 °FSunny.21 mph29%29.56 "Hg10 mi
10:53 am92 °FSunny.8 mph44%29.55 "Hg9 mi
9:53 am85 °FSunny.10 mph65%29.54 "Hg6 mi
8:53 am81 °FSunny.7 mph77%29.51 "Hg5 mi
8:07 am78 °FScattered clouds.9 mph84%29.49 "Hg4 mi
6:53 am78 °FOvercast.8 mph82%29.48 "Hg5 mi
5:53 am78 °FOvercast.15 mph84%29.46 "Hg4 mi
5:19 am78 °FPassing clouds.16 mph84%29.45 "Hg3 mi
4:53 am78 °FClear.16 mph82%29.43 "Hg3 mi
3:53 am79 °FClear.18 mph79%29.44 "Hg5 mi
3:06 am79 °FPassing clouds.15 mph79%29.47 "Hg7 mi
1:53 am80 °FOvercast.20 mph79%29.51 "Hg8 mi
12:53 am80 °FOvercast.16 mph79%29.52 "Hg9 mi
11:53 pm
Tue, Apr 25
79 °FOvercast.15 mph82%29.53 "Hg8 mi
11:24 pm79 °FPassing clouds.15 mph82%29.53 "Hg8 mi
10:53 pm79 °FClear.16 mph82%29.53 "Hg8 mi
9:53 pm79 °FPassing clouds.17 mph82%29.52 "Hg9 mi
8:53 pm81 °FClear.17 mph77%29.50 "Hg9 mi
7:53 pm84 °FSunny.20 mph70%29.49 "Hg10 mi
6:53 pm88 °FSunny.24 mph61%29.47 "Hg10 mi
5:53 pm92 °FSunny.18 mph54%29.48 "Hg10 mi
4:53 pm95 °FSunny.20 mph51%29.49 "Hg10 mi
3:53 pm97 °FSunny.21 mph46%29.52 "Hg10 mi
2:53 pm97 °FSunny.17 mph42%29.53 "Hg10 mi
Weather by CustomWeather, © 2017

See weather overviewHow to use our weather pages